Regional Weather Roundup
Issued by NWS Glasgow, MT

Home | Current Version | Previous Version | Text Only | Print | Product List | Glossary On
Versions: 1 2 3 4 5 6 7 8 9 10 11 12 13 14 15 16 17 18 19 20 21 22 23 24 25 26 27 28 29 30 31 32 33 34 35 36 37 38 39 40 41 42 43 44 45 46 47 48 49 50
000
ASUS45 KGGW 240815
RWRGGW
HOURLY REGIONAL WEATHER ROUNDUP FOR NORTHEAST MONTANA
NATIONAL WEATHER SERVICE GLASGOW MONTANA
200 AM MDT SUN JUL 24 2016

NOTE: "FAIR" INDICATES FEW OR NO CLOUDS BELOW 12,000 FEET WITH NO
SIGNIFICANT WEATHER AND/OR OBSTRUCTIONS TO VISISBILITY.

NORTHEAST MONTANA


CITY           SKY/WX    TMP DP  RH WIND       PRES   REMARKS
GLASGOW        CLEAR     59  51  75 S3        30.03R
PLENTYWOOD       N/A     56  52  86 W3          N/A
WOLF POINT     CLEAR     54  50  86 SW5       30.04R
JORDAN           N/A     55  48  77 CALM      30.07R
WINNETT          N/A     56  47  71 S1          N/A
SIDNEY         CLEAR     56  52  86 CALM      30.02S
GLENDIVE       CLEAR     55  50  83 W7        30.06S
MALTA            N/A     57  52  83 SW1         N/A
SCOBEY           N/A     55  45  68 CALM      30.01S
OPHEIM           N/A     59  48  67 W3        29.82R

FORT PECK REPORTS


CITY           SKY/WX    TMP DP  RH WIND       PRES   REMARKS
FORT PECK        N/A     66  53  63 SE5         N/A
THE PINES        N/A     64  53  67 SW3         N/A

SOUTHEAST MONTANA


CITY           SKY/WX    TMP DP  RH WIND       PRES   REMARKS
BILLINGS       CLOUDY    66  46  48 CALM      30.10F
MILES CITY     CLOUDY    66  49  54 S3        30.07R
BAKER          CLEAR     55  50  83 SW3       30.10R
LIVINGSTON     CLOUDY    55  38  52 W7        30.17R

CENTRAL MONTANA


CITY           SKY/WX    TMP DP  RH WIND       PRES   REMARKS
HAVRE          CLEAR     57  51  80 MISG      30.04R
LEWISTOWN      CLEAR     56  46  69 NW5       30.13S
GREAT FALLS    CLEAR     53  38  56 SW6       30.11F
CUT BANK       CLEAR     55  40  56 W6        30.10S
HELENA         CLEAR     60  37  42 SE5       30.15R
BUTTE          CLEAR     48  35  60 SE5       30.25R
BOZEMAN        CLEAR     54  43  66 S7        30.18R

WESTERN MONTANA


CITY           SKY/WX    TMP DP  RH WIND       PRES   REMARKS
MISSOULA       CLEAR     56  44  64 MISG      30.17R
KALISPELL      NOT AVBL

NORTH DAKOTA


CITY           SKY/WX    TMP DP  RH WIND       PRES   REMARKS
WILLISTON      CLEAR     62  53  72 W13       29.99S
DICKINSON      CLEAR     55  50  83 NW9       30.01S
MINOT          CLEAR     67  58  72 W14       29.90R
BISMARCK       CLEAR     63  57  81 W6        29.95S

SOUTHERN SASKATCHEWAN


CITY           SKY/WX    TMP DP  RH WIND       PRES   REMARKS
REGINA         CLEAR     57  55  94 W10       29.93S
ESTEVAN        PTCLDY    59  55  88 W9        29.93R
SWIFT CURRENT  CLEAR     54  52  94 SW9       30.01S




USA.gov is the U.S. government's official web portal to all federal, state and local government web resources and services.